Showing default

OV1-9, 2610

Orbit data source: Space-Track

OV1-9, 2610 is a payload satellite owned by USAF OAR (US) in LEO that was launched on Sun, 11 Dec 1966 UTC via an ATLAS D launch vehicle from the Air Force Western Test Range (AFWTR). Payload-class satellites include a variety of spacecraft equipped with specific instruments for various scientific and technological missions. These include communications satellites like Starlink; space stations such as the ISS; scientific satellites like the Hubble; Earth observation satellites from companies like Planet Labs, Umbra, and HawkEye 360; GPS; miniature CubeSats for education and research; and military/defense satellites.

Loading next visibility...
Identifier
2610, 1966-111A
Orbit
LEO
Last TLE update
1 day ago
Origin
Manufacturer
GD/Convair
Mission
Defense Technology
Bus & Motor
OV1, Unknown motor
Mass
106 kg wet, 106 kg dry
Launch date (UTC)
1966-12-11 (59 years ago)
Launch vehicle
ATLAS D
Launch site
Air Force Western Test Range (AFWTR)
Object type
Payload
Rocket body
Debris
Shape & HBR
Domed Cyl, 0.7 m
Radar Cross Section
0.946 m², Medium (>0.1 m² and < 1m²)

Expand to show TLE details & history

TLE from 1 day ago
0 OV1-9
1 02610U 66111A   25199.45311353  .00000289  00000-0  12096-3 0  9995
2 02610  99.1022 151.5526 2274410 167.6205 199.2010 10.39340765198352
Epoch: 2025-07-18T10:52Z
TLE epoch observation values (Epoch: 2025-07-18T10:52:29.008Z)
Latitude
-0.00006°
Longitude
51.92739°
Altitude
4,436.386 km
Speed
5.366 km/s
True Right ascension
10h 06m 12s
True Declination
0° 00' 00"
Sunlit
Object was in daylight at epoch
Visualization orbit readout
Latitude
-61.75009°
Longitude
-144.77078°
Altitude
1,643.454 km
Speed
7.39 km/s
Apparent Right ascension
15h 30m 52s
Apparent Declination
-71° 49' 09"
Sunlit
Object is in full shadow
Visualization observer readout
Local Sidereal Time
00:09:41
Azimuth
201.779° SSW
Elevation
-49.686°
Doppler factor
1
Orbital elements
Apogee altitude
4,505.541 km
Perigee altitude
472.117 km
Semi-major axis
8,866.966 km
Eccentricity
0.22744
Inclination
99.1022°
RAAN
151.5526°
Arg. of periapsis
167.6205°
True anomaly
192.46793°
Mean anomaly
199.201°
Eccentric anomaly
195.67924°
Mean motion
2.59944 °/min
Orbital period
138.49 mins
BSTAR
0.00012096
Loading maneuver chart data...
Loading SW <> Apogee altitude chart data...
Loading historical data...
Loading historical data...
Loading historical data...
Loading historical data...
Loading historical data...
Loading historical data...
Loading historical data...
Other satellites on launch #111 in the year 1966 (1966-12-11 UTC)
|